Total_Precipitation_Accumulation
0.13 0.15 0.19 0.22 0.22 0.22 0.25 0.31 0.34 0.42 0.50 0.58 0.73 0.95 1.22 1.33 1.42 1.37 1.20 1.14 1.26 1.49 1.68 1.61 1.62 1.61 1.44 1.36 1.41 1.54 1.42 1.09 0.79 0.69 0.54 0.36 0.23 0.22 0.20 0.16 0.15 0.15 0.16
0.07 0.07 0.10 0.13 0.15 0.15 0.17 0.22 0.30 0.39 0.48 0.57 0.75 0.91 1.06 1.07 1.23 1.39 1.36 1.27 1.25 1.39 1.52 1.75 1.78 1.68 1.66 1.75 1.78 2.02 2.07 1.58 1.12 1.01 1.01 0.76 0.54 0.31 0.20 0.17 0.16 0.15 0.21
0.06 0.06 0.06 0.08 0.09 0.10 0.12 0.15 0.22 0.32 0.45 0.61 0.85 1.07 1.26 1.34 1.40 1.32 1.41 1.41 1.33 1.35 1.43 1.58 1.72 1.70 1.73 1.77 1.87 2.16 2.50 2.20 1.66 1.34 1.38 1.10 0.92 0.71 0.33 0.20 0.18 0.16 0.19
0.09 0.06 0.06 0.07 0.07 0.08 0.09 0.12 0.20 0.35 0.56 0.78 1.04 1.30 1.50 1.53 1.43 1.47 1.50 1.37 1.29 1.25 1.31 1.44 1.57 1.66 1.66 1.75 1.81 1.89 2.30 2.54 2.22 1.87 1.47 1.13 0.99 0.98 0.75 0.43 0.29 0.27 0.22
0.13 0.12 0.11 0.12 0.13 0.14 0.16 0.23 0.43 0.68 0.93 1.14 1.41 1.70 1.70 1.59 1.50 1.49 1.46 1.40 1.39 1.37 1.36 1.49 1.54 1.54 1.59 1.67 1.93 2.14 2.37 2.49 2.40 2.24 2.01 1.75 1.42 0.99 0.97 0.93 0.66 0.49 0.36
0.22 0.27 0.31 0.37 0.41 0.44 0.58 0.79 1.05 1.24 1.33 1.46 1.61 1.73 1.71 1.72 1.66 1.48 1.38 1.37 1.41 1.47 1.52 1.57 1.55 1.50 1.53 1.61 1.79 2.02 2.23 2.47 2.59 2.43 2.17 2.00 1.78 1.47 1.28 1.06 0.97 0.85 0.62
0.33 0.45 0.61 0.74 0.84 0.96 1.08 1.22 1.42 1.56 1.50 1.47 1.52 1.56 1.57 1.57 1.56 1.50 1.40 1.34 1.35 1.36 1.40 1.50 1.61 1.67 1.69 1.76 1.90 2.00 1.92 2.11 2.42 2.36 2.18 2.04 1.77 1.65 1.61 1.41 1.16 1.03 0.71
0.52 0.63 0.72 0.83 1.00 1.14 1.19 1.19 1.30 1.40 1.36 1.33 1.31 1.28 1.34 1.37 1.34 1.26 1.25 1.28 1.34 1.32 1.26 1.30 1.40 1.53 1.68 1.70 1.72 1.71 1.65 1.77 1.96 2.01 2.17 2.23 1.96 1.75 1.55 1.41 1.37 1.14 0.94
0.79 0.94 1.04 1.17 1.21 1.25 1.30 1.22 1.21 1.25 1.25 1.17 1.09 1.09 1.15 1.20 1.23 1.17 1.19 1.17 1.16 1.08 1.01 1.01 1.04 1.11 1.18 1.23 1.37 1.45 1.53 1.54 1.65 1.76 1.90 2.04 2.11 1.98 1.71 1.56 1.46 1.33 1.15
1.03 1.32 1.57 1.74 1.57 1.30 1.18 1.13 1.06 1.06 1.14 1.11 1.04 1.01 1.10 1.11 1.10 1.13 1.10 1.10 1.09 1.00 0.93 0.88 0.83 0.79 0.76 0.79 0.97 1.15 1.26 1.35 1.47 1.62 1.72 1.76 1.83 1.99 1.91 1.70 1.59 1.44 1.26
1.19 1.34 1.53 1.70 1.60 1.28 1.05 1.05 1.06 1.01 0.99 0.99 1.01 1.00 0.99 0.90 0.89 0.94 0.95 0.94 0.95 0.98 0.96 0.87 0.81 0.86 0.85 0.80 0.85 0.90 0.95 1.03 1.15 1.27 1.36 1.49 1.75 2.05 2.05 1.98 1.82 1.62 1.43
1.10 1.09 1.13 1.20 1.21 1.06 0.87 0.83 0.96 1.01 0.95 0.92 0.95 0.94 0.85 0.81 0.77 0.76 0.73 0.66 0.64 0.67 0.75 0.82 0.77 0.75 0.77 0.77 0.81 0.84 0.88 0.89 0.96 1.03 1.13 1.25 1.55 1.92 2.11 2.17 2.05 1.87 1.67
1.07 1.03 0.95 0.88 0.91 0.88 0.80 0.76 0.89 1.03 1.05 1.00 0.86 0.78 0.74 0.71 0.69 0.61 0.57 0.55 0.50 0.50 0.54 0.62 0.62 0.70 0.76 0.78 0.79 0.79 0.83 0.86 0.93 1.05 1.08 1.09 1.26 1.47 1.71 1.89 1.96 1.92 1.88
0.77 0.71 0.66 0.61 0.60 0.63 0.67 0.73 0.83 0.90 1.02 1.11 1.01 0.86 0.77 0.70 0.64 0.57 0.54 0.51 0.49 0.51 0.57 0.69 0.74 0.68 0.64 0.68 0.78 0.79 0.74 0.74 0.79 0.85 0.92 0.98 0.99 1.12 1.30 1.45 1.61 1.78 1.95
0.38 0.37 0.36 0.34 0.33 0.33 0.34 0.43 0.55 0.70 0.89 1.09 1.07 0.92 0.86 0.78 0.65 0.60 0.60 0.58 0.61 0.57 0.58 0.69 0.80 0.86 0.80 0.76 0.82 0.78 0.75 0.75 0.75 0.78 0.77 0.83 0.84 0.86 1.00 1.07 1.28 1.57 1.80
0.25 0.24 0.22 0.20 0.16 0.14 0.16 0.17 0.25 0.42 0.59 0.75 0.81 0.77 0.69 0.61 0.58 0.57 0.55 0.52 0.51 0.47 0.47 0.50 0.58 0.67 0.71 0.90 0.83 0.66 0.62 0.66 0.72 0.77 0.77 0.77 0.70 0.68 0.70 0.80 0.93 1.18 1.36
0.19 0.18 0.19 0.18 0.17 0.16 0.14 0.14 0.17 0.24 0.35 0.47 0.56 0.55 0.49 0.43 0.40 0.45 0.45 0.43 0.39 0.40 0.38 0.37 0.37 0.44 0.59 0.65 0.49 0.46 0.51 0.62 0.72 0.78 0.81 0.77 0.71 0.74 0.73 0.71 0.70 0.76 0.90
0.18 0.16 0.16 0.15 0.13 0.12 0.11 0.11 0.14 0.17 0.18 0.22 0.26 0.27 0.28 0.27 0.29 0.31 0.32 0.33 0.32 0.30 0.29 0.36 0.44 0.45 0.47 0.51 0.41 0.40 0.50 0.68 0.79 0.77 0.72 0.76 0.78 0.81 0.85 0.76 0.78 0.73 0.72
0.09 0.08 0.07 0.06 0.05 0.04 0.04 0.04 0.05 0.05 0.05 0.06 0.08 0.10 0.12 0.14 0.17 0.18 0.21 0.30 0.33 0.34 0.37 0.48 0.56 0.49 0.41 0.44 0.44 0.49 0.65 0.77 0.84 0.80 0.77 0.82 0.84 0.97 0.98 0.87 0.91 0.88 0.83
0.02 0.02 0.01 0.01 0.01 0.00 0.00 0.00 0.00 0.00 0.00 0.00 0.00 0.01 0.01 0.02 0.05 0.08 0.11 0.17 0.24 0.31 0.38 0.40 0.37 0.37 0.43 0.48 0.46 0.56 0.76 0.88 0.99 0.94 0.91 1.07 1.01 0.96 0.89 0.86 0.99 0.98 0.81
0.00 0.00 0.00 0.00 0.00 0.00 0.00 0.00 0.00 0.00 0.00 0.00 0.00 0.00 0.00 0.00 0.01 0.02 0.03 0.06 0.11 0.15 0.17 0.19 0.22 0.29 0.45 0.50 0.51 0.70 0.79 0.85 1.00 1.02 0.97 0.89 0.99 0.91 0.82 0.83 0.88 1.01 0.86
0.00 0.00 0.00 0.00 0.00 0.00 0.00 0.00 0.00 0.00 0.00 0.00 0.00 0.00 0.00 0.00 0.01 0.01 0.02 0.02 0.04 0.06 0.10 0.12 0.16 0.22 0.30 0.37 0.42 0.55 0.67 0.74 0.91 0.99 0.89 0.79 0.99 0.92 0.81 0.75 0.76 0.87 0.90
0.00 0.00 0.00 0.00 0.00 0.00 0.00 0.00 0.00 0.00 0.00 0.00 0.00 0.00 0.00 0.01 0.01 0.01 0.01 0.02 0.03 0.06 0.07 0.11 0.17 0.23 0.27 0.28 0.34 0.41 0.49 0.61 0.79 0.85 0.86 0.86 0.89 0.78 0.71 0.80 0.80 0.79 0.83
0.00 0.00 0.00 0.00 0.00 0.00 0.00 0.00 0.00 0.00 0.00 0.00 0.00 0.00 0.01 0.01 0.01 0.01 0.02 0.02 0.02 0.05 0.08 0.15 0.21 0.24 0.27 0.28 0.34 0.42 0.46 0.55 0.64 0.66 0.70 0.73 0.69 0.67 0.67 0.71 0.79 0.81 0.83
0.00 0.00 0.00 0.00 0.00 0.00 0.00 0.00 0.00 0.00 0.00 0.00 0.00 0.00 0.01 0.01 0.01 0.01 0.01 0.02 0.02 0.04 0.10 0.14 0.17 0.18 0.20 0.23 0.30 0.41 0.49 0.60 0.70 0.71 0.65 0.67 0.66 0.65 0.62 0.63 0.65 0.67 0.64
0.00 0.00 0.00 0.00 0.00 0.00 0.00 0.00 0.00 0.00 0.00 0.00 0.00 0.00 0.01 0.01 0.01 0.02 0.02 0.01 0.01 0.02 0.04 0.05 0.08 0.14 0.16 0.13 0.14 0.24 0.38 0.54 0.74 0.95 0.97 0.98 0.91 0.81 0.70 0.58 0.49 0.44 0.46